Regional Weather Roundup
Issued by NWS

Home | Current Version | Previous Version | Text Only | Print | Product List | Glossary Off
Versions: 1 2 3 4 5 6 7 8 9 10 11 12 13 14 15 16 17 18 19 20 21 22 23 24 25 26 27 28 29 30 31 32 33 34 35 36 37 38 39 40 41 42 43 44 45 46 47 48 49 50

000
ASUS43 KFSD 280102
RWRSD

WEATHER ROUNDUP FOR SOUTH DAKOTA
NATIONAL WEATHER SERVICE SIOUX FALLS SD
700 PM CST TUE JAN 27 2015

NOTE: "FAIR" INDICATES FEW OR NO CLOUDS BELOW 12,000 FEET WITH NO
SIGNIFICANT WEATHER AND/OR OBSTRUCTIONS TO VISIBILITY.


SDZ001>005-009-010-012>017-280200-
NORTHWEST AND NORTH CENTRAL SOUTH DAKOTA

CITY           SKY/WX    TMP DP  RH WIND       PRES   REMARKS
BUFFALO          N/A     56  30  37 NW3       29.77F
FAITH            N/A     51  28  41 S8        29.82F
MOBRIDGE       PTCLDY    41  32  70 SE3       29.82S
$$

SDZ012>016-024>037-041>051-057-063-072>074-280200-
SOUTHWEST AND SOUTH CENTRAL SOUTH DAKOTA

CITY           SKY/WX    TMP DP  RH WIND       PRES   REMARKS
RAPID CTY ARPT MOCLDY    46  30  53 CALM      29.84F
PIERRE         CLEAR     44  35  70 SE8       29.84S
CUSTER         CLOUDY    54  22  28 W12G23    29.95F
ELLSWORTH AFB  CLEAR     55  30  38 CALM      29.84F
PHILIP         CLEAR     53  29  39 CALM      29.82F
PINE RIDGE     PTCLDY    43  30  60 CALM      29.90F
WINNER         FAIR      48  36  63 SE12      29.86S
$$

SDZ004>011-016>023-039-040-280200-
NORTHEAST SOUTH DAKOTA

CITY           SKY/WX    TMP DP  RH WIND       PRES   REMARKS
ABERDEEN       CLEAR     35  32  88 S12       29.90S WCI  27
WATERTOWN      CLEAR     33  30  88 S15       29.93F WCI  23
SISSETON         N/A     32  32 100 S16       29.95F WCI  21
$$

SDZ017-020-022-023-036>040-048>070-280200-
SOUTHEAST SOUTH DAKOTA

CITY           SKY/WX    TMP DP  RH WIND       PRES   REMARKS
SIOUX FALLS    CLEAR     38  34  85 SE12      29.98F
HURON          CLEAR     35  32  88 SE13      29.90F WCI  26
MITCHELL       CLEAR     38  35  89 SE12      29.93F
YANKTON        CLEAR     39  34  81 E9        29.98S
$$

ABBREVIATIONS USED IN REMARKS
   TC - TEMPERATURE IN CELSIUS
  WCI - WIND CHILL INDEX
   HX - HEAT INDEX
  VSB - VISIBILITY




USA.gov is the U.S. government's official web portal to all federal, state and local government web resources and services.